CSAPA EDHL-EDDH

Flight info

Callsign CSAPA
Flight time N/A
Altitude 2000
Route EDHL/07 WROUTE WHISKEY A1HIGHWAY DELTA DROUTE EDDH
Aircraft C152/L-V/N

Departure

Time 2026-05-06 11:02
Airport Lübeck Blankensee Airport (EDHL)

Arrival

Time N/A
Airport Hamburg Helmut Schmidt Airport (EDDH)
Time Latitude Longitude Altitude Speed Heading
2026-05-06 10:44 53.80803 10.70816 57 ft 0 kts 310°
2026-05-06 10:48 53.80803 10.70815 57 ft 0 kts 310°
2026-05-06 10:51 53.80804 10.70815 57 ft 0 kts 310°
2026-05-06 10:52 53.80804 10.70814 57 ft 0 kts 310°
2026-05-06 10:55 53.80806 10.70810 57 ft 4 kts 311°
2026-05-06 10:56 53.80827 10.70750 57 ft 4 kts 252°
2026-05-06 10:56 53.80803 10.70700 57 ft 5 kts 225°
2026-05-06 10:56 53.80784 10.70670 57 ft 1 kts 222°
2026-05-06 10:56 53.80783 10.70668 57 ft 0 kts 222°
2026-05-06 10:57 53.80769 10.70647 57 ft 5 kts 222°
2026-05-06 10:57 53.80732 10.70589 57 ft 5 kts 221°
2026-05-06 10:57 53.80688 10.70533 57 ft 8 kts 204°
2026-05-06 10:57 53.80641 10.70483 57 ft 9 kts 218°
2026-05-06 10:58 53.80594 10.70419 57 ft 10 kts 219°
2026-05-06 10:58 53.80554 10.70362 57 ft 3 kts 220°
2026-05-06 10:58 53.80527 10.70326 57 ft 4 kts 204°
2026-05-06 10:58 53.80505 10.70341 57 ft 4 kts 130°
2026-05-06 10:59 53.80480 10.70381 57 ft 6 kts 137°
2026-05-06 10:59 53.80458 10.70414 57 ft 0 kts 138°
2026-05-06 11:00 53.80458 10.70415 57 ft 0 kts 138°
2026-05-06 11:00 53.80448 10.70430 57 ft 7 kts 138°
2026-05-06 11:00 53.80398 10.70504 57 ft 11 kts 139°
2026-05-06 11:00 53.80363 10.70554 57 ft 5 kts 140°
2026-05-06 11:01 53.80317 10.70620 57 ft 9 kts 139°
2026-05-06 11:01 53.80302 10.70726 57 ft 9 kts 82°
2026-05-06 11:01 53.80379 10.71121 58 ft 63 kts 72°
2026-05-06 11:01 53.80526 10.71900 245 ft 69 kts 71°
2026-05-06 11:02 53.80694 10.72657 472 ft 70 kts 66°
2026-05-06 11:02 53.80925 10.73526 537 ft 93 kts 69°
2026-05-06 11:02 53.80881 10.74569 727 ft 89 kts 117°
2026-05-06 11:02 53.80412 10.75196 776 ft 88 kts 161°
2026-05-06 11:03 53.79841 10.75511 846 ft 87 kts 162°
2026-05-06 11:03 53.79266 10.75819 917 ft 86 kts 162°
2026-05-06 11:03 53.78684 10.76045 993 ft 88 kts 173°
2026-05-06 11:03 53.78079 10.76122 1081 ft 86 kts 178°
2026-05-06 11:04 53.77467 10.76121 1145 ft 89 kts 181°
2026-05-06 11:04 53.76853 10.76075 1255 ft 89 kts 183°
2026-05-06 11:04 53.76238 10.76006 1365 ft 90 kts 184°
2026-05-06 11:04 53.75612 10.75931 1581 ft 87 kts 184°
2026-05-06 11:05 53.75007 10.75829 1766 ft 89 kts 186°
2026-05-06 11:05 53.74391 10.75694 1943 ft 90 kts 188°
2026-05-06 11:05 53.73761 10.75542 1982 ft 94 kts 188°
2026-05-06 11:05 53.73112 10.75386 1983 ft 95 kts 188°
2026-05-06 11:06 53.72473 10.75239 2000 ft 93 kts 187°
2026-05-06 11:06 53.71817 10.75106 1988 ft 94 kts 186°
2026-05-06 11:06 53.71178 10.74997 1986 ft 94 kts 186°
2026-05-06 11:06 53.70510 10.74880 1965 ft 95 kts 186°
2026-05-06 11:07 53.69861 10.74792 1961 ft 95 kts 184°
2026-05-06 11:07 53.69197 10.74707 1955 ft 95 kts 184°
2026-05-06 11:07 53.68539 10.74630 1944 ft 95 kts 187°
2026-05-06 11:07 53.67904 10.74300 1927 ft 98 kts 206°
2026-05-06 11:08 53.67364 10.73622 1957 ft 97 kts 226°
2026-05-06 11:08 53.66975 10.72696 1980 ft 97 kts 242°
2026-05-06 11:08 53.66708 10.71660 2019 ft 96 kts 247°
2026-05-06 11:08 53.66451 10.70624 2043 ft 96 kts 247°
2026-05-06 11:09 53.66193 10.69580 2072 ft 96 kts 248°
2026-05-06 11:09 53.65939 10.68538 2090 ft 97 kts 248°
2026-05-06 11:09 53.65689 10.67434 2056 ft 100 kts 250°
2026-05-06 11:09 53.65474 10.66324 2046 ft 101 kts 253°